Location: �clusier
(49.9361°N, 2.7869°E)
Time: 17:43:39
(UTC+00:00)

ATLAS CENTAUR R/B - Pass Details

Date: 28 October 2021
Orbit: 452 x 689 km, 64.7° (Epoch: 29 November)

Event Time Altitude Azimuth Distance (km) Brightness Sun altitude
Exits shadow 05:37:39 - 321° (NW) 2,390 4.1 -9.3°
Reaches altitude 10° 05:39:29 10° 339° (NNW) 1,994 3.9 -9.0°
Maximum altitude 05:41:37 13° 7° (N) 1,831 4.0 -8.6°
Drops below altitude 10° 05:43:48 10° 35° (NE) 2,057 4.6 -8.3°
Sets 05:47:27 0° 63° (ENE) 3,012 6.0 -7.7°
